Galesburg, IL

10:33 AM CST on January 18, 2017 (GMT -0600)
Galesburg Municipal

Weather History for KGBG - December, 2012

Change the Weather History Date:

Sunday, December 30, 2012

  Actual Average Record
Temperature  
Mean Temperature 21 °F -  
Max Temperature 34 °F 30 °F 62 °F (2002)
Min Temperature 8 °F 15 °F -9 °F (1983)
Degree Days  
Heating Degree Days 44    
Moisture  
Dew Point 18 °F    
Average Humidity 82    
Maximum Humidity 93    
Minimum Humidity 68    
Precipitation  
Precipitation 0.00 in - - ()
Sea Level Pressure  
Sea Level Pressure 30.23 in    
Wind  
Wind Speed 5 mph (South)    
Max Wind Speed 15 mph    
Max Gust Speed 23 mph    
Visibility 9 miles    
Events      
Averages and records for this station are not official NWS values.
T = Trace of Precipitation, MM = Missing Value Source: NWS Daily Summary

Daily Weather History Graph

Daily Weather History Graph

Search for Another Location

Airport or City:

Trip Planner

Search our weather history database for the weather conditions in past years. The results will help you decide how hot, cold, wet, or windy it might be!

Date:

Astronomy

Dec. 30, 2012 Rise Set
Actual Time 7:26 AM CST 4:43 PM CST
Civil Twilight 6:55 AM CST 5:13 PM CST
Nautical Twilight 6:20 AM CST 5:48 PM CST
Astronomical Twilight 5:47 AM CST 6:21 PM CST
Moon 7:15 PM CST (12/30) 8:34 AM CST (12/30)
Length of Visible Light 10h 18m
Length of Day
9h 16m
Waning Gibbous, 95% of the Moon is Illuminated
Dec 30
Waning Gibbous
Jan 4
Last Quarter
Jan 11
New
Jan 18
First Quarter
Jan 26
Full

Hourly Weather History & Observations

Time (CST) Temp. Windchill Dew Point Humidity Pressure Visibility Wind Dir Wind Speed Gust Speed Precip Events Conditions
12:15 AM 8.6 °F - 6.3 °F 90% 30.24 in 7.0 mi Calm Calm - N/A   Clear
12:35 AM 8.6 °F 2.0 °F 6.8 °F 92% 30.25 in 7.0 mi South 3.5 mph - N/A   Clear
12:55 AM 8.1 °F - 5.9 °F 91% 30.24 in 5.0 mi Calm Calm - N/A   Clear
1:15 AM 8.1 °F - 5.9 °F 91% 30.25 in 7.0 mi Calm Calm - N/A   Clear
1:35 AM 8.4 °F - 6.6 °F 92% 30.26 in 7.0 mi Calm Calm - N/A   Clear
1:55 AM 9.3 °F - 7.5 °F 92% 30.27 in 7.0 mi Calm Calm - N/A   Clear
2:15 AM 9.1 °F 0.8 °F 7.0 °F 91% 30.28 in 7.0 mi South 4.6 mph - N/A   Clear
2:35 AM 9.5 °F 3.0 °F 7.5 °F 92% 30.28 in 7.0 mi South 3.5 mph - N/A   Clear
2:55 AM 9.5 °F 1.2 °F 7.5 °F 92% 30.29 in 7.0 mi South 4.6 mph - N/A   Clear
3:15 AM 9.5 °F 1.2 °F 7.7 °F 92% 30.29 in 7.0 mi SSW 4.6 mph - N/A   Clear
3:35 AM 9.9 °F 0.2 °F 7.7 °F 91% 30.31 in 7.0 mi SSW 5.8 mph - N/A   Clear
3:55 AM 10.8 °F 2.7 °F 8.6 °F 91% 30.30 in 7.0 mi SW 4.6 mph - N/A   Clear
4:15 AM 10.9 °F 2.9 °F 8.6 °F 90% 30.30 in 7.0 mi SW 4.6 mph - N/A   Clear
4:35 AM 10.8 °F 2.7 °F 8.6 °F 91% 30.30 in 7.0 mi SSW 4.6 mph - N/A   Clear
4:55 AM 11.3 °F - 9.5 °F 92% 30.29 in 7.0 mi Calm Calm - N/A   Clear
5:15 AM 11.5 °F - 9.5 °F 92% 30.29 in 7.0 mi Calm Calm - N/A   Clear
5:35 AM 11.1 °F 3.1 °F 9.1 °F 92% 30.30 in 7.0 mi SW 4.6 mph - N/A   Clear
5:55 AM 10.4 °F 2.2 °F 8.2 °F 91% 30.30 in 7.0 mi SW 4.6 mph - N/A   Clear
6:15 AM 11.5 °F 5.3 °F 9.7 °F 92% 30.30 in 7.0 mi SSW 3.5 mph - N/A   Clear
6:35 AM 11.8 °F - 9.9 °F 92% 30.31 in 7.0 mi Calm Calm - N/A   Clear
6:55 AM 11.3 °F 5.1 °F 9.1 °F 91% 30.32 in 7.0 mi South 3.5 mph - N/A   Clear
7:15 AM 11.1 °F 4.9 °F 9.1 °F 92% 30.32 in 7.0 mi South 3.5 mph - N/A   Clear
7:35 AM 10.2 °F 2.0 °F 8.2 °F 92% 30.32 in 7.0 mi SSW 4.6 mph - N/A   Clear
7:55 AM 11.1 °F - 9.3 °F 92% 30.33 in 7.0 mi Calm Calm - N/A   Clear
8:15 AM 12.4 °F 6.3 °F 10.6 °F 92% 30.32 in 7.0 mi SW 3.5 mph - N/A   Clear
8:35 AM 14.0 °F 6.5 °F 12.2 °F 93% 30.32 in 7.0 mi SSW 4.6 mph - N/A   Clear
8:55 AM 15.8 °F - 14.2 °F 93% 30.32 in 7.0 mi Calm Calm - N/A   Clear
9:15 AM 17.4 °F - 15.6 °F 93% 30.31 in 7.0 mi Calm Calm - N/A   Clear
9:35 AM 18.9 °F 13.7 °F 16.5 °F 91% 30.32 in 7.0 mi South 3.5 mph - N/A   Clear
9:55 AM 20.8 °F 14.4 °F 17.6 °F 87% 30.33 in 7.0 mi South 4.6 mph - N/A   Clear
10:15 AM 21.6 °F 15.3 °F 18.1 °F 87% 30.33 in 10.0 mi SSW 4.6 mph - N/A   Clear
10:35 AM 23.9 °F 16.8 °F 19.8 °F 84% 30.33 in 10.0 mi South 5.8 mph - N/A   Clear
10:55 AM 25.0 °F 16.3 °F 19.6 °F 80% 30.33 in 10.0 mi South 8.1 mph - N/A   Clear
11:15 AM 26.2 °F 19.6 °F 20.1 °F 78% 30.32 in 10.0 mi South 5.8 mph - N/A   Clear
11:35 AM 28.4 °F 21.2 °F 21.9 °F 77% 30.31 in 10.0 mi SSW 6.9 mph - N/A   Clear
11:55 AM 29.3 °F 21.5 °F 21.9 °F 74% 30.30 in 10.0 mi South 8.1 mph - N/A   Clear
12:15 PM 30.2 °F 23.4 °F 22.6 °F 73% 30.28 in 10.0 mi South 6.9 mph - N/A   Clear
12:35 PM 30.6 °F 23.8 °F 22.8 °F 73% 30.27 in 10.0 mi South 6.9 mph - N/A   Clear
12:55 PM 31.3 °F 24.7 °F 23.5 °F 73% 30.26 in 10.0 mi South 6.9 mph - N/A   Clear
1:15 PM 31.5 °F 24.9 °F 23.4 °F 72% 30.24 in 10.0 mi South 6.9 mph - N/A   Clear
1:35 PM 32.0 °F 25.6 °F 24.3 °F 73% 30.22 in 10.0 mi SSE 6.9 mph - N/A   Clear
1:55 PM 32.7 °F 26.4 °F 24.6 °F 72% 30.22 in 10.0 mi SSE 6.9 mph - N/A   Clear
2:15 PM 32.9 °F 25.9 °F 25.0 °F 73% 30.21 in 10.0 mi SSE 8.1 mph - N/A   Clear
2:35 PM 32.4 °F 25.3 °F 25.7 °F 76% 30.21 in 10.0 mi SSE 8.1 mph - N/A   Clear
2:55 PM 32.5 °F 25.5 °F 25.7 °F 76% 30.21 in 10.0 mi South 8.1 mph - N/A   Clear
3:15 PM 32.2 °F 25.0 °F 25.7 °F 77% 30.21 in 10.0 mi South 8.1 mph - N/A   Clear
3:35 PM 32.5 °F 26.2 °F 25.7 °F 76% 30.22 in 10.0 mi South 6.9 mph - N/A   Clear
3:55 PM 32.5 °F 26.2 °F 26.1 °F 77% 30.20 in 10.0 mi South 6.9 mph - N/A   Clear
4:15 PM 32.4 °F 26.0 °F 26.1 °F 78% 30.21 in 10.0 mi South 6.9 mph - N/A   Clear
4:35 PM 32.2 °F 25.0 °F 25.7 °F 77% 30.19 in 10.0 mi SSE 8.1 mph - N/A   Clear
4:55 PM 31.8 °F 26.2 °F 25.5 °F 78% 30.19 in 10.0 mi SSE 5.8 mph - N/A   Clear
5:15 PM 31.5 °F 25.8 °F 25.2 °F 78% 30.19 in 10.0 mi SSE 5.8 mph - N/A   Clear
5:35 PM 30.7 °F 24.9 °F 24.8 °F 79% 30.17 in 10.0 mi SE 5.8 mph - N/A   Clear
5:55 PM 30.6 °F 22.4 °F 24.8 °F 79% 30.17 in 10.0 mi SSE 9.2 mph - N/A   Clear
6:15 PM 30.6 °F 23.1 °F 24.8 °F 79% 30.16 in 10.0 mi SSE 8.1 mph - N/A   Clear
6:35 PM 31.8 °F 23.3 °F 25.2 °F 76% 30.16 in 10.0 mi SSE 10.4 mph - N/A   Clear
6:55 PM 32.2 °F 22.7 °F 25.3 °F 76% 30.15 in 10.0 mi SSE 12.7 mph - N/A   Clear
7:15 PM 32.4 °F 23.0 °F 25.5 °F 76% 30.14 in 10.0 mi SSE 12.7 mph 17.3 mph N/A   Clear
7:35 PM 32.7 °F 23.9 °F 25.2 °F 74% 30.13 in 10.0 mi South 11.5 mph - N/A   Clear
7:55 PM 33.8 °F 24.8 °F 24.3 °F 68% 30.14 in 10.0 mi South 12.7 mph - N/A   Clear
8:15 PM 33.3 °F 24.1 °F 24.4 °F 70% 30.13 in 10.0 mi South 12.7 mph 16.1 mph N/A   Clear
8:35 PM 33.8 °F 23.9 °F 24.8 °F 70% 30.13 in 10.0 mi South 15.0 mph - N/A   Clear
8:55 PM 34.0 °F 24.6 °F 25.0 °F 70% 30.12 in 10.0 mi South 13.8 mph 23.0 mph N/A   Clear
9:15 PM 33.8 °F 24.8 °F 25.2 °F 71% 30.11 in 10.0 mi South 12.7 mph 20.7 mph N/A   Clear
9:35 PM 33.6 °F 24.6 °F 25.2 °F 71% 30.11 in 10.0 mi South 12.7 mph 18.4 mph N/A   Clear
9:55 PM 33.3 °F 24.1 °F 25.3 °F 73% 30.11 in 10.0 mi South 12.7 mph - N/A   Clear
10:15 PM 33.4 °F 25.9 °F 25.5 °F 73% 30.11 in 10.0 mi South 9.2 mph 18.4 mph N/A   Clear
10:35 PM 33.3 °F 24.1 °F 25.5 °F 73% 30.10 in 10.0 mi South 12.7 mph 18.4 mph N/A   Clear
10:55 PM 33.3 °F 23.7 °F 25.5 °F 73% 30.10 in 10.0 mi South 13.8 mph - N/A   Clear
11:15 PM 33.4 °F 23.9 °F 25.5 °F 73% 30.09 in 10.0 mi South 13.8 mph - N/A   Clear
11:35 PM 33.1 °F 23.4 °F 25.5 °F 74% 30.09 in 10.0 mi South 13.8 mph - N/A   Clear
11:55 PM 33.1 °F 23.4 °F 25.7 °F 74% 30.08 in 10.0 mi South 13.8 mph - N/A   Scattered Clouds